Total_Precipitation_Accumulation
0.00 0.00 0.01 0.02 0.05 0.10 0.23 0.27 0.33 0.47 0.52 0.48 0.48 0.54 0.62 0.66 0.81 1.46 0.90 0.39 0.26 0.16 0.12 0.11 0.13 0.15 0.17 0.18 0.23 0.24 0.24 0.23 0.22 0.19 0.19 0.19 0.21 0.21 0.21 0.26 0.40 0.46 0.44 0.38 0.36 0.37 0.36 0.32 0.28
0.01 0.01 0.02 0.03 0.06 0.18 0.26 0.28 0.37 0.48 0.45 0.39 0.43 0.49 0.46 0.45 0.42 0.45 0.51 0.35 0.25 0.16 0.13 0.09 0.11 0.13 0.14 0.15 0.17 0.22 0.24 0.25 0.22 0.19 0.19 0.19 0.22 0.24 0.25 0.28 0.42 0.60 0.59 0.56 0.47 0.41 0.38 0.34 0.29
0.01 0.02 0.03 0.02 0.07 0.21 0.29 0.29 0.35 0.41 0.37 0.41 0.47 0.52 0.54 0.48 0.42 0.44 0.44 0.27 0.26 0.21 0.16 0.14 0.12 0.12 0.13 0.14 0.17 0.22 0.29 0.35 0.31 0.27 0.25 0.22 0.22 0.24 0.28 0.33 0.40 0.59 0.63 0.60 0.52 0.48 0.43 0.37 0.32
0.01 0.02 0.02 0.03 0.09 0.19 0.28 0.33 0.44 0.50 0.41 0.43 0.45 0.59 0.65 0.54 0.52 0.49 0.44 0.36 0.28 0.27 0.25 0.19 0.16 0.15 0.16 0.17 0.17 0.22 0.38 0.40 0.35 0.33 0.31 0.29 0.28 0.28 0.34 0.42 0.46 0.47 0.51 0.55 0.58 0.58 0.48 0.37 0.31
0.02 0.03 0.02 0.04 0.09 0.18 0.32 0.41 0.56 0.58 0.43 0.38 0.45 0.72 0.85 0.76 0.68 0.64 0.55 0.47 0.37 0.33 0.36 0.27 0.23 0.23 0.24 0.22 0.21 0.26 0.36 0.40 0.41 0.43 0.40 0.36 0.33 0.35 0.41 0.49 0.53 0.53 0.56 0.56 0.56 0.59 0.50 0.39 0.37
0.02 0.02 0.03 0.07 0.12 0.21 0.28 0.42 0.46 0.54 0.47 0.42 0.56 0.94 1.26 1.25 1.13 0.99 0.88 0.62 0.50 0.40 0.46 0.40 0.34 0.30 0.30 0.29 0.28 0.33 0.40 0.47 0.51 0.49 0.42 0.39 0.39 0.40 0.45 0.50 0.52 0.56 0.57 0.52 0.46 0.46 0.46 0.47 0.44
0.02 0.02 0.04 0.08 0.16 0.22 0.28 0.45 0.50 0.56 0.54 0.55 0.76 0.99 1.27 1.41 1.43 1.35 1.19 0.92 0.86 0.75 0.78 0.69 0.52 0.45 0.42 0.46 0.47 0.43 0.43 0.47 0.53 0.54 0.47 0.42 0.42 0.42 0.43 0.45 0.48 0.50 0.47 0.44 0.42 0.40 0.40 0.41 0.40
0.01 0.01 0.03 0.11 0.19 0.25 0.36 0.55 0.53 0.52 0.57 0.67 0.92 1.12 1.45 1.44 1.25 1.39 1.37 1.21 1.21 1.25 1.21 0.86 0.66 0.65 0.70 0.70 0.64 0.57 0.53 0.53 0.53 0.53 0.54 0.50 0.46 0.47 0.51 0.48 0.50 0.50 0.49 0.47 0.45 0.44 0.45 0.45 0.43
0.01 0.01 0.04 0.13 0.23 0.28 0.30 0.47 0.47 0.40 0.45 0.63 0.91 1.04 1.19 1.15 1.12 1.39 1.49 1.61 1.69 1.50 1.30 1.14 0.93 0.88 0.87 0.82 0.70 0.70 0.67 0.64 0.65 0.64 0.60 0.58 0.58 0.68 0.71 0.63 0.68 0.66 0.64 0.58 0.57 0.57 0.55 0.52 0.48
0.02 0.02 0.05 0.11 0.16 0.23 0.30 0.42 0.38 0.43 0.47 0.59 0.73 0.97 1.18 1.12 1.29 1.45 1.58 1.88 1.78 1.72 1.53 1.42 1.30 1.13 1.06 0.89 0.91 0.90 0.86 0.86 0.82 0.91 0.85 0.91 1.08 1.17 1.08 1.17 1.10 0.98 0.89 0.81 0.82 0.83 0.73 0.63 0.56
0.03 0.04 0.07 0.11 0.12 0.19 0.30 0.39 0.38 0.50 0.65 0.92 1.02 1.07 1.14 1.14 1.35 1.59 1.84 2.17 2.17 1.95 1.65 1.60 1.58 1.55 1.50 1.48 1.32 1.20 1.22 1.27 1.23 1.36 1.27 1.35 1.46 1.41 1.44 1.55 1.39 1.26 1.16 1.12 1.18 1.05 0.83 0.79 0.86
0.06 0.07 0.12 0.12 0.15 0.25 0.39 0.48 0.63 0.70 0.83 1.05 1.13 1.10 1.21 1.28 1.44 1.63 1.90 2.18 2.39 2.29 2.08 2.07 1.85 1.80 1.87 2.06 1.97 1.59 1.50 1.52 1.49 1.69 1.62 1.75 1.88 1.87 1.96 2.01 1.80 1.75 1.73 1.71 1.59 1.47 1.29 1.19 1.14
0.07 0.09 0.12 0.11 0.19 0.31 0.47 0.50 0.61 0.60 0.52 0.77 0.98 1.11 1.24 1.22 1.43 1.61 1.92 2.45 2.73 2.72 2.54 2.50 2.36 2.25 2.31 2.55 2.58 2.05 1.92 2.04 2.24 2.32 2.13 2.11 2.11 2.17 2.36 2.32 2.23 2.15 2.25 2.17 2.01 1.81 1.82 1.76 1.58
0.04 0.06 0.08 0.12 0.18 0.25 0.39 0.39 0.50 0.68 0.61 0.71 0.84 1.01 1.23 1.46 1.75 2.01 2.27 2.69 2.99 3.10 2.96 2.84 2.75 2.70 2.65 2.75 2.78 2.75 2.51 2.55 2.71 2.78 2.73 2.56 2.55 2.71 2.88 2.83 2.67 2.46 2.46 2.42 2.32 2.26 2.32 2.23 2.15
0.05 0.06 0.09 0.14 0.21 0.24 0.29 0.45 0.59 0.71 0.74 0.80 0.86 0.99 1.23 1.55 1.83 2.10 2.58 2.86 2.93 2.96 2.92 2.99 2.93 3.00 3.03 3.10 3.00 3.09 3.10 3.14 3.25 3.27 3.10 2.88 2.86 3.19 3.26 3.28 3.01 2.79 2.76 2.87 2.82 2.74 2.72 2.46 2.36
0.08 0.08 0.12 0.18 0.21 0.27 0.26 0.51 0.69 0.57 0.61 0.73 0.89 1.05 1.16 1.37 1.78 2.13 2.52 2.75 2.90 3.26 3.28 3.27 3.26 3.30 3.35 3.38 3.32 3.31 3.33 3.63 3.70 3.68 3.57 3.28 3.18 3.30 3.38 3.40 3.28 3.13 3.06 3.29 3.41 3.34 3.25 3.07 2.97
0.10 0.12 0.15 0.19 0.20 0.26 0.28 0.50 0.66 0.61 0.59 0.74 1.09 1.34 1.30 1.45 1.89 2.30 2.62 2.88 3.03 3.22 3.40 3.37 3.41 3.58 3.56 3.58 3.46 3.61 3.78 3.80 3.72 3.71 3.76 3.70 3.59 3.65 3.69 3.62 3.61 3.62 3.69 3.68 3.48 3.58 3.44 3.43 3.32
0.14 0.14 0.16 0.21 0.24 0.23 0.28 0.48 0.68 0.76 0.89 0.95 1.13 1.34 1.46 1.54 1.73 2.08 2.54 2.99 3.14 3.17 3.13 3.26 3.31 3.43 3.52 3.76 3.76 3.80 3.95 4.11 4.24 4.37 4.40 4.17 4.12 4.06 4.26 4.24 4.14 4.13 4.09 3.89 3.82 3.80 3.61 3.44 3.31
0.13 0.16 0.19 0.23 0.24 0.28 0.35 0.48 0.73 0.87 1.04 1.04 1.07 1.16 1.25 1.55 1.75 2.08 2.42 2.72 3.25 3.28 3.15 3.24 3.41 3.60 3.70 3.96 4.05 4.28 4.62 4.84 4.99 5.02 4.91 4.88 4.76 4.85 4.86 4.68 4.46 4.32 4.28 4.18 4.14 3.96 3.75 3.49 3.37
0.15 0.23 0.28 0.25 0.23 0.31 0.45 0.59 0.79 0.93 1.01 0.99 1.08 1.26 1.38 1.77 2.11 2.26 2.44 2.82 3.31 3.47 3.49 3.52 3.71 4.01 4.22 4.45 4.90 5.19 5.45 5.69 5.89 5.93 5.50 5.29 5.19 5.08 4.98 4.98 4.90 4.70 4.50 4.29 4.10 4.01 3.85 3.53 3.41
0.12 0.17 0.23 0.25 0.23 0.30 0.50 0.78 0.95 1.04 1.17 1.30 1.51 1.70 1.81 1.99 2.31 2.39 2.49 2.83 3.16 3.33 3.45 3.58 3.82 4.24 4.78 5.17 5.62 6.02 6.17 6.22 6.08 5.83 5.72 5.58 5.42 5.26 5.09 4.94 4.72 4.56 4.43 4.26 4.05 3.87 3.77 3.54 3.41
0.11 0.12 0.20 0.19 0.22 0.32 0.46 0.85 1.19 1.29 1.42 1.68 1.90 1.89 1.93 2.10 2.30 2.43 2.60 2.83 3.11 3.33 3.46 3.79 4.27 4.86 5.42 5.89 6.42 6.89 7.00 6.85 6.55 6.11 5.69 5.44 5.20 4.88 4.63 4.50 4.38 4.19 3.89 3.65 3.50 3.41 3.27 3.14 3.01
0.11 0.10 0.16 0.18 0.16 0.28 0.42 0.72 1.44 1.63 1.73 1.97 2.20 1.98 1.91 1.91 1.97 2.20 2.37 2.57 2.95 3.12 3.33 3.69 4.24 4.94 5.64 6.46 7.15 7.57 7.49 7.16 6.73 6.06 5.48 5.00 4.60 4.25 3.99 3.85 3.67 3.45 3.09 2.73 2.60 2.68 2.77 2.77 2.70
0.10 0.10 0.14 0.16 0.19 0.32 0.34 0.62 1.34 1.81 2.02 2.14 2.07 1.89 1.81 1.69 1.70 1.80 1.89 2.13 2.46 2.76 3.05 3.46 4.07 4.78 5.44 6.10 6.63 6.86 6.77 6.56 6.04 5.34 4.72 4.32 3.99 3.64 3.29 2.98 2.70 2.47 2.31 2.11 2.05 2.08 2.16 2.35 2.46
0.10 0.12 0.31 0.43 0.48 0.48 0.39 0.65 1.31 1.70 1.86 1.79 1.73 1.76 1.63 1.61 1.60 1.58 1.60 1.81 2.14 2.35 2.72 3.15 3.58 4.22 4.65 5.00 5.42 5.60 5.62 5.39 5.09 4.61 4.15 3.71 3.23 2.88 2.59 2.32 2.18 2.04 1.93 1.86 1.83 1.80 1.77 1.86 2.02
0.10 0.11 0.33 0.58 0.56 0.58 0.60 1.00 1.54 1.62 1.59 1.51 1.45 1.48 1.50 1.50 1.48 1.52 1.60 1.76 2.02 2.15 2.35 2.57 2.87 3.23 3.42 3.48 3.72 3.96 3.98 3.93 3.79 3.51 3.20 2.90 2.53 2.16 1.92 1.72 1.60 1.58 1.61 1.54 1.56 1.58 1.58 1.59 1.66
0.08 0.08 0.15 0.31 0.37 0.65 0.97 1.41 1.86 1.75 1.68 1.61 1.58 1.43 1.36 1.33 1.36 1.46 1.53 1.53 1.59 1.68 1.78 1.88 2.04 2.20 2.31 2.39 2.44 2.60 2.63 2.62 2.53 2.36 2.13 1.93 1.77 1.55 1.39 1.29 1.28 1.27 1.28 1.32 1.30 1.28 1.32 1.41 1.46
0.07 0.12 0.18 0.34 0.62 0.88 1.19 1.77 2.34 2.28 1.93 1.64 1.46 1.25 1.14 1.17 1.25 1.34 1.40 1.38 1.38 1.38 1.46 1.53 1.58 1.65 1.71 1.78 1.72 1.73 1.78 1.79 1.74 1.61 1.54 1.44 1.31 1.21 1.19 1.13 1.06 1.00 0.99 1.00 1.04 1.06 1.08 1.13 1.22
0.14 0.17 0.24 0.36 0.46 0.83 1.33 2.06 2.26 2.44 2.33 1.90 1.57 1.38 1.25 1.16 1.14 1.22 1.22 1.20 1.18 1.18 1.22 1.30 1.32 1.32 1.33 1.32 1.29 1.26 1.23 1.24 1.29 1.30 1.25 1.16 1.05 0.94 0.91 0.82 0.77 0.74 0.77 0.82 0.87 0.90 0.94 0.98 1.03
0.16 0.19 0.28 0.57 0.64 0.66 1.26 2.24 2.24 2.49 2.57 2.27 1.95 1.75 1.63 1.35 1.25 1.25 1.17 1.11 1.05 1.05 1.06 1.10 1.11 1.12 1.16 1.08 0.99 0.99 0.96 0.95 0.99 1.03 0.95 0.90 0.87 0.78 0.71 0.62 0.60 0.59 0.62 0.65 0.68 0.72 0.76 0.86 0.89